This demonstration page uses our WeatherBlox Daily Observations layout. Learn more.

Left ArrowRight Arrow

Hourly Observations for October 20, 2015

Temp ( °F °C ) Dew Point ( °F °C ) Humidity (%) Winds ( mph kmh ) Pressure ( in mb ) Visibility ( mi km ) Precip ( " mm )
12:53 am 00:53 Partly Cloudy 47 8.3 42 5.6 83 83 WSW 7 11 29.80 1009 10 16 0.00 0.00
1:53 am 01:53 Mostly Cloudy 47 8.3 43 6.1 86 86 SW 6 9 29.80 1009 10 16 0.00 0.00
2:53 am 02:53 Cloudy 48 8.9 42 5.6 80 80 WSW 12 19 29.82 1010 10 16 0.00 0.00
3:53 am 03:53 Cloudy with Light Rain 48 8.9 44 6.7 86 86 SW 8 13 29.83 1010 10 16 0.00 0.03
4:53 am 04:53 Cloudy with Light Rain 48 8.9 44 6.7 86 86 WSW 12 19 29.83 1010 10 16 0.01 0.25
5:53 am 05:53 Mostly Cloudy 47 8.3 43 6.1 86 86 SW 12 19 29.84 1011 10 16 0.00 0.03
6:53 am 06:53 Clear 47 8.3 43 6.1 86 86 WSW 14 22 29.87 1012 10 16 0.00 0.00
7:53 am 07:53 Sunny 46 7.8 43 6.1 89 89 W 12 19 29.91 1013 10 16 0.00 0.00
8:53 am 08:53 Mostly Cloudy 49 9.4 45 7.2 86 86 NW 17 28 29.97 1015 10 16 0.00 0.00
9:53 am 09:53 Cloudy 49 9.4 43 6.1 80 80 NW 21 33 30.02 1017 10 16 0.00 0.00
10:53 am 10:53 Cloudy 49 9.4 43 6.1 80 80 NW 14 22 30.06 1018 10 16 0.00 0.00
11:10 am 11:10 Cloudy 48 9 43 6 82 82 NNW 13 20 30.06 1018 10 16 0.00 0.00
11:53 am 11:53 Cloudy 51 10.6 43 6.1 74 74 NW 16 26 30.10 1019 10 16 0.00 0.00
12:16 pm 12:16 Cloudy 52 11 43 6 72 72 NW 12 19 30.06 1018 10 16 0.00 0.00
12:53 pm 12:53 Cloudy 54 12.2 43 6.1 67 67 NW 8 13 30.11 1020 10 16 0.00 0.00
1:53 pm 13:53 Partly Cloudy 59 15 36 2.2 42 42 NW 20 31 30.11 1020 10 16 0.00 0.00
2:53 pm 14:53 Cloudy 58 14.4 38 3.3 48 48 NW 14 22 30.12 1020 10 16 0.00 0.00
3:53 pm 15:53 Sunny 58 14.4 33 0.6 39 39 NW 21 33 30.14 1021 10 16 0.00 0.00
4:53 pm 16:53 Sunny 56 13.3 35 1.7 46 46 NW 16 26 30.16 1022 10 16 0.00 0.00
5:53 pm 17:53 Sunny 53 11.7 36 2.2 52 52 WNW 12 19 30.18 1022 10 16 0.00 0.00
6:53 pm 18:53 Clear 41 5 33 0.6 73 73 WSW 9 15 30.21 1023 10 16 0.00 0.00
7:53 pm 19:53 Clear 40 4.4 33 0.6 77 77 WSW 5 7 30.22 1024 10 16 0.00 0.00
8:53 pm 20:53 Clear 37 2.8 31 -0.6 79 79 SSW 6 9 30.24 1024 10 16 0.00 0.00
9:53 pm 21:53 Clear 35 1.7 31 -0.6 85 85 WSW 6 9 30.25 1024 10 16 0.00 0.00
10:53 pm 22:53 Clear 33 0.6 31 -0.6 92 92 SW 6 9 30.26 1025 10 16 0.00 0.00
11:53 pm 23:53 Clear 34 1.1 31 -0.6 89 89 Calm 30.25 1024 10 16 0.00 0.00

Powered by AerisWeather